[[{"header":{"parameterUnit":"m.s-1","parameterCategory":1,"la1":30.2991,"la2":30.254,"lo1":-89.0895,"lo2":-89.0444,"dy":0.0017,"dx":0.0017,"nx":28,"ny":28,"refTime":"2023-09-01T09:00:00:Z","depth":0,"parameterNumber":2,"parameterNumberName":"U-component_of_WINDS"},"data":[0,0,0,0,0,0,0,0,0,0,0,0,0,0,0,0,0,0,0,0,0,0,0,0,0,0,0,0,0,0,0,0,0,0,0,0,0,0,0,0,0,0,0,0,0,0,0,0,0,0,0,0,0,0,0,0,0,0,-0.5842,-0.5842,0,-0.5835,-0.5835,-0.5835,-0.5754,-0.5752,-0.575,-0.5748,-0.5745,-0.5747,-0.5749,0,0,0,0,0,0,0,0,0,0,0,0,0,-0.579,-0.5791,-0.5842,-0.5842,-0.5842,-0.5835,-0.5835,-0.5835,-0.5754,-0.5751,-0.5749,-0.5747,-0.5744,-0.5747,-0.5749,0,0,0,0,0,0,0,0,0,0,0,0,0,-0.5801,-0.5791,-0.5843,-0.5801,-0.5797,-0.5835,-0.5835,-0.5835,-0.5755,-0.5751,-0.5748,-0.5745,-0.5744,-0.5746,-0.5749,-0.5828,0,0,-0.5758,-0.5759,0,0,0,0,0,0,0,0,-0.58,-0.5803,-0.5807,-0.5804,-0.58,-0.5792,-0.5815,-0.5833,-0.5755,-0.5771,-0.5748,-0.5744,-0.5763,-0.5764,-0.577,-0.5828,-0.5828,-0.5758,-0.576,-0.5761,-0.5761,0,0,0,0,0,0,0,-0.5799,-0.5803,-0.584,-0.5807,-0.5803,-0.5784,-0.5782,-0.5818,-0.5785,-0.5769,-0.5763,-0.5763,-0.5761,-0.5768,-0.5769,-0.5828,-0.5758,-0.576,-0.5762,-0.5763,-0.5949,-0.5952,0,0,0,0,0,0,-0.5804,-0.5802,-0.584,-0.5839,-0.5792,-0.5787,-0.5785,-0.5798,-0.5784,-0.5779,-0.5766,-0.576,-0.5764,-0.5766,-0.5769,-0.586,-0.5761,-0.5763,-0.5765,-0.5945,-0.5949,-0.5953,0,0,0,0,0,0,-0.5803,-0.5808,-0.584,-0.5819,-0.5822,-0.5791,-0.5806,-0.5799,-0.5806,-0.5781,-0.5775,-0.5779,-0.5762,-0.5765,-0.5813,-0.5859,-0.5765,-0.5767,-0.5942,-0.5947,-0.5951,-0.6043,0,0,0,0,0,0,-0.5802,-0.5808,-0.5837,-0.582,-0.5823,-0.5884,-0.5809,-0.5801,-0.581,-0.5802,-0.5792,-0.5787,-0.576,-0.581,-0.5816,-0.5861,-0.5769,-0.5937,-0.5944,-0.595,-0.6036,-0.6051,-0.6063,0,0,0,0,0,-0.58,-0.5865,-0.5839,-0.5844,-0.5859,-0.5887,-0.5889,-0.5854,-0.5814,-0.5844,-0.5828,-0.5788,-0.5852,-0.5815,-0.5822,-0.5868,-0.5934,-0.5942,-0.5949,-0.603,-0.6048,-0.6063,0,0,0,0,0,0,-0.5891,-0.5862,-0.5833,-0.5894,-0.5893,-0.5873,-0.591,-0.5874,-0.5886,-0.5878,-0.5836,-0.5835,-0.589,-0.5883,-0.5843,-0.5943,-0.5886,-0.5895,-0.5946,-0.5962,-0.5976,-0.5977,-0.5772,0,0,0,0,0,-0.5917,-0.5941,-0.5915,-0.5972,-0.5972,-0.5941,-0.5952,-0.5925,-0.5923,-0.5923,-0.5911,-0.5912,-0.5932,-0.5946,-0.5964,-0.6034,-0.6031,-0.6069,-0.6083,-0.6094,-0.6103,-0.6139,-0.6156,-0.5977,-0.5977,-0.5977,0,0,-0.5973,-0.5961,-0.5979,-0.5989,-0.5985,-0.6012,-0.5942,-0.5973,-0.5993,-0.5928,-0.5973,-0.5964,-0.5962,-0.6021,-0.6047,-0.6018,-0.6151,-0.6103,-0.6112,-0.6115,-0.6148,-0.6165,-0.618,-0.5982,-0.5981,-0.598,0,0,-0.6089,-0.6082,-0.6127,-0.6124,-0.6118,-0.6096,-0.6107,-0.6092,-0.6083,-0.6126,-0.6078,-0.6101,-0.6137,-0.6137,-0.6142,-0.6255,-0.6219,-0.6262,-0.6334,-0.6369,-0.6384,-0.6396,-0.6437,-0.6452,-0.627,-0.6271,-0.6271,0,-0.6161,-0.6197,-0.6156,-0.619,-0.6196,-0.6136,-0.6182,-0.6181,-0.6183,-0.6189,-0.6155,-0.6198,-0.6193,-0.6251,-0.6278,-0.6284,-0.6296,-0.6264,-0.6385,-0.6396,-0.6407,-0.6446,-0.6461,-0.6276,-0.6275,-0.6275,-0.6274,0,-0.6285,-0.6311,-0.6349,-0.6349,-0.6359,-0.6399,-0.6364,-0.638,-0.6351,-0.6333,-0.6378,-0.6368,-0.6383,-0.6394,-0.6368,-0.6448,-0.643,-0.6392,-0.6334,-0.643,-0.6466,-0.648,-0.6284,-0.6282,-0.628,-0.6279,0,0,-0.6461,-0.6434,-0.6449,-0.6448,-0.6436,-0.6456,-0.6493,-0.6504,-0.6518,-0.652,-0.6551,-0.6581,-0.6544,-0.655,-0.6523,-0.6554,-0.6644,-0.6511,-0.651,-0.6537,-0.6733,-0.6763,-0.6781,-0.6619,-0.6621,-0.6624,-0.6733,0,-0.6573,-0.6633,-0.6596,-0.6663,-0.6686,-0.6628,-0.666,-0.6657,-0.6641,-0.6659,-0.6641,-0.6663,-0.6613,-0.6616,-0.6644,-0.6627,-0.6683,-0.6619,-0.6648,-0.665,-0.6652,-0.6799,-0.6832,-0.6936,-0.6747,-0.6749,-0.6751,0,-0.6713,-0.6718,-0.6787,-0.6768,-0.6776,-0.6806,-0.6813,-0.683,-0.6825,-0.6811,-0.6816,-0.678,-0.6816,-0.6757,-0.6806,-0.6763,-0.6772,-0.6766,-0.6769,-0.6772,-0.6708,-0.6807,-0.6968,-0.6984,-0.6772,-0.677,-0.6769,0,-0.6834,-0.6859,-0.6903,-0.6903,-0.6882,-0.6904,-0.6897,-0.6888,-0.6897,-0.6903,-0.6909,-0.692,-0.6926,-0.6936,-0.6904,-0.6864,-0.6957,-0.6896,-0.6948,-0.6949,-0.6972,-0.6971,-0.7138,-0.6976,-0.6976,-0.6975,-0.6975,0,-0.6964,-0.7009,-0.6957,-0.6984,-0.7032,-0.6988,-0.7037,-0.7024,-0.7016,-0.704,-0.6991,-0.7015,-0.6971,-0.6991,-0.6966,-0.701,-0.7014,-0.7004,-0.6997,-0.7009,-0.7011,-0.7016,-0.7009,-0.6979,-0.6979,-0.6978,-0.6977,0,-0.711,-0.7077,-0.7121,-0.7096,-0.7091,-0.7127,-0.7107,-0.7131,-0.711,-0.7141,-0.7146,-0.7114,-0.7134,-0.7103,-0.7121,-0.7104,-0.7165,-0.7147,-0.7167,-0.7162,-0.7215,-0.7211,-0.7393,-0.7414,-0.7238,-0.724,-0.7241,0,-0.7196,-0.7228,-0.7206,-0.7218,-0.7212,-0.7232,-0.724,-0.7197,-0.7208,-0.7203,-0.7228,-0.7244,-0.7254,-0.729,-0.7269,-0.7282,-0.7264,-0.7326,-0.7266,-0.7276,-0.7266,-0.7265,-0.7268,-0.734,-0.7342,-0.7344,-0.7345,0,-0.7352,-0.7333,-0.7345,-0.7352,-0.7362,-0.7365,-0.7365,-0.7378,-0.7333,-0.7347,-0.7366,-0.7374,-0.739,-0.7407,-0.7414,-0.7407,-0.737,-0.7364,-0.7376,-0.739,-0.74,-0.7396,-0.7202,-0.736,-0.7359,-0.7358,-0.7357,-0.7356,-0.7471,-0.7496,-0.7484,-0.7499,-0.7494,-0.7494,-0.7516,-0.7496,-0.751,-0.7519,-0.7493,-0.7518,-0.7511,-0.7516,-0.7513,-0.7533,-0.7506,-0.7524,-0.7529,-0.7534,-0.7543,-0.7396,-0.7534,-0.7533,-0.7533,-0.7533,-0.7532,0,-0.7625,-0.7613,-0.7627,-0.7627,-0.7639,-0.7599,-0.7596,-0.7609,-0.7631,-0.7626,-0.7636,-0.7658,-0.7673,-0.7652,-0.7664,-0.7684,-0.7666,-0.7688,-0.7687,-0.7686,-0.7566,-0.7554,-0.7702,-0.7702,-0.7702,-0.7702,-0.7702,-0.7702,-0.7706,-0.7747,-0.7727,-0.7764,-0.7753,-0.7775,-0.7777,-0.7777,-0.7773,-0.7799,-0.781,-0.7795,-0.7784,-0.7794,-0.7806,-0.7799,-0.7807,-0.7835,-0.7823,-0.7711,-0.7695,-0.7679,-0.7668,-0.7836,-0.7837,-0.7941,-0.7942,-0.7942]},{"header":{"parameterUnit":"m.s-1","parameterCategory":1,"la1":30.2991,"la2":30.254,"lo1":-89.0895,"lo2":-89.0444,"dy":0.0017,"dx":0.0017,"nx":28,"ny":28,"refTime":"2023-09-01T09:00:00:Z","depth":0,"parameterNumber":3,"parameterNumberName":"V-component_of_WINDS"},"data":[0,0,0,0,0,0,0,0,0,0,0,0,0,0,0,0,0,0,0,0,0,0,0,0,0,0,0,0,0,0,0,0,0,0,0,0,0,0,0,0,0,0,0,0,0,0,0,0,0,0,0,0,0,0,0,0,0,0,-2.8374,-2.8375,0,-2.8472,-2.8473,-2.8474,-2.8497,-2.8496,-2.8495,-2.8495,-2.859,-2.8593,-2.8596,0,0,0,0,0,0,0,0,0,0,0,0,0,-2.8199,-2.8202,-2.8373,-2.8375,-2.8376,-2.8472,-2.8473,-2.8474,-2.8497,-2.8496,-2.8495,-2.8494,-2.8589,-2.8593,-2.8596,0,0,0,0,0,0,0,0,0,0,0,0,0,-2.8284,-2.8203,-2.8373,-2.8399,-2.8402,-2.8471,-2.8473,-2.8475,-2.8497,-2.8496,-2.8495,-2.8494,-2.8588,-2.8592,-2.8597,-2.8646,0,0,-2.8611,-2.8613,0,0,0,0,0,0,0,0,-2.8279,-2.829,-2.8394,-2.8397,-2.8401,-2.8471,-2.8447,-2.8532,-2.8497,-2.8461,-2.8495,-2.8493,-2.8551,-2.8559,-2.8579,-2.8651,-2.8655,-2.8612,-2.8615,-2.8617,-2.8618,0,0,0,0,0,0,0,-2.8273,-2.8286,-2.8412,-2.8395,-2.84,-2.8403,-2.8414,-2.8463,-2.851,-2.8464,-2.8466,-2.8477,-2.8553,-2.8574,-2.8581,-2.8656,-2.8612,-2.8616,-2.8619,-2.8621,-2.8772,-2.8773,0,0,0,0,0,0,-2.8264,-2.8281,-2.8409,-2.8415,-2.8336,-2.8407,-2.842,-2.8449,-2.851,-2.8518,-2.8478,-2.8478,-2.8567,-2.8576,-2.8585,-2.8646,-2.8617,-2.8621,-2.8624,-2.877,-2.8772,-2.8773,0,0,0,0,0,0,-2.826,-2.8275,-2.8405,-2.8349,-2.8366,-2.8411,-2.8445,-2.8452,-2.8474,-2.8521,-2.8528,-2.8492,-2.8566,-2.8578,-2.8631,-2.8649,-2.8623,-2.8628,-2.8769,-2.8771,-2.8773,-2.8768,0,0,0,0,0,0,-2.8255,-2.8273,-2.8294,-2.8349,-2.8369,-2.8451,-2.8446,-2.8455,-2.8483,-2.8483,-2.8536,-2.8543,-2.8566,-2.8624,-2.8636,-2.8655,-2.8631,-2.8768,-2.877,-2.8772,-2.8767,-2.8769,-2.8772,0,0,0,0,0,-2.8248,-2.8288,-2.8295,-2.831,-2.8396,-2.8452,-2.8463,-2.8491,-2.8484,-2.8504,-2.8534,-2.8542,-2.8646,-2.8629,-2.8643,-2.8664,-2.8767,-2.8769,-2.8772,-2.8765,-2.8769,-2.8771,0,0,0,0,0,0,-2.8232,-2.8295,-2.8304,-2.8363,-2.8402,-2.8456,-2.8482,-2.8493,-2.8534,-2.8533,-2.8563,-2.8575,-2.8625,-2.865,-2.863,-2.8714,-2.8706,-2.8711,-2.8696,-2.87,-2.8702,-2.8694,-2.8635,0,0,0,0,0,-2.8235,-2.8278,-2.8331,-2.8377,-2.8397,-2.8436,-2.8462,-2.848,-2.8521,-2.8537,-2.8571,-2.8609,-2.865,-2.8676,-2.8717,-2.877,-2.8781,-2.8792,-2.8794,-2.8796,-2.88,-2.8829,-2.8833,-2.8782,-2.8782,-2.8782,0,0,-2.8242,-2.8282,-2.8307,-2.8375,-2.8407,-2.8449,-2.845,-2.8494,-2.8524,-2.8543,-2.8595,-2.8621,-2.8665,-2.8719,-2.8744,-2.8741,-2.8817,-2.8799,-2.88,-2.8803,-2.8832,-2.8837,-2.8841,-2.8784,-2.8783,-2.8783,0,0,-2.8276,-2.8312,-2.8354,-2.8387,-2.8437,-2.8463,-2.8473,-2.8525,-2.8543,-2.8597,-2.8611,-2.8647,-2.8718,-2.8748,-2.8773,-2.8818,-2.8826,-2.883,-2.8843,-2.887,-2.8874,-2.8878,-2.8893,-2.8898,-2.8834,-2.8834,-2.8834,0,-2.8278,-2.8343,-2.8374,-2.8417,-2.8446,-2.8467,-2.8508,-2.8538,-2.8598,-2.8616,-2.8612,-2.8701,-2.8732,-2.8792,-2.8803,-2.8823,-2.8834,-2.8824,-2.8872,-2.8876,-2.888,-2.8894,-2.8899,-2.8834,-2.8834,-2.8834,-2.8834,0,-2.8342,-2.8387,-2.8414,-2.8473,-2.8505,-2.8547,-2.8583,-2.8611,-2.8626,-2.8651,-2.8704,-2.8743,-2.8791,-2.8807,-2.8821,-2.8868,-2.8865,-2.8866,-2.8858,-2.8884,-2.8898,-2.8904,-2.8835,-2.8834,-2.8834,-2.8834,0,0,-2.8368,-2.8443,-2.8453,-2.8479,-2.8536,-2.857,-2.8612,-2.8661,-2.8684,-2.8724,-2.8759,-2.8818,-2.882,-2.8848,-2.8866,-2.8891,-2.8922,-2.8889,-2.889,-2.8892,-2.8974,-2.8972,-2.8978,-2.8928,-2.8929,-2.893,-2.897,0,-2.8407,-2.8486,-2.8515,-2.8578,-2.8619,-2.8639,-2.8676,-2.8713,-2.8738,-2.8774,-2.8801,-2.8842,-2.8842,-2.8859,-2.8884,-2.8913,-2.8938,-2.891,-2.8959,-2.896,-2.8946,-2.8986,-2.8984,-2.902,-2.8976,-2.8977,-2.8978,0,-2.8464,-2.8507,-2.8575,-2.8626,-2.8644,-2.8677,-2.8723,-2.8758,-2.88,-2.8817,-2.8848,-2.8865,-2.8908,-2.8898,-2.8956,-2.8937,-2.8958,-2.8975,-2.8977,-2.8981,-2.897,-2.899,-2.9032,-2.9037,-2.8987,-2.8986,-2.8985,0,-2.8474,-2.8549,-2.8599,-2.8621,-2.8682,-2.8704,-2.873,-2.8772,-2.8799,-2.8839,-2.8856,-2.89,-2.8924,-2.8956,-2.8983,-2.8974,-2.9039,-2.9031,-2.9052,-2.9051,-2.9063,-2.9062,-2.9108,-2.9079,-2.9079,-2.9079,-2.9079,0,-2.8515,-2.8555,-2.8604,-2.8635,-2.868,-2.8712,-2.8755,-2.8782,-2.8819,-2.8853,-2.8873,-2.8905,-2.8939,-2.8975,-2.8996,-2.904,-2.9051,-2.9064,-2.9069,-2.9062,-2.906,-2.9075,-2.9073,-2.9081,-2.908,-2.908,-2.908,0,-2.8534,-2.8568,-2.8624,-2.8677,-2.8691,-2.8722,-2.8767,-2.8796,-2.8822,-2.8866,-2.8878,-2.8918,-2.8961,-2.8991,-2.9046,-2.906,-2.9108,-2.9113,-2.9094,-2.9096,-2.9114,-2.9111,-2.9171,-2.9179,-2.9146,-2.9146,-2.9146,0,-2.8557,-2.8589,-2.8646,-2.8671,-2.8698,-2.8738,-2.8767,-2.8798,-2.8827,-2.8877,-2.89,-2.8944,-2.8982,-2.9049,-2.9082,-2.9123,-2.9129,-2.9147,-2.9135,-2.9126,-2.9127,-2.9125,-2.9127,-2.9148,-2.9148,-2.9148,-2.9148,0,-2.8594,-2.8609,-2.865,-2.8697,-2.873,-2.8768,-2.8806,-2.8825,-2.8863,-2.8893,-2.8939,-2.8968,-2.9024,-2.9068,-2.9112,-2.9137,-2.9148,-2.9152,-2.9159,-2.9151,-2.9138,-2.9144,-2.9097,-2.915,-2.915,-2.915,-2.915,-2.915,-2.8615,-2.8643,-2.8688,-2.8732,-2.8765,-2.8799,-2.883,-2.886,-2.8899,-2.8948,-2.8964,-2.901,-2.905,-2.9112,-2.9137,-2.9172,-2.9171,-2.9181,-2.9183,-2.9185,-2.9184,-2.9134,-2.9181,-2.9181,-2.9181,-2.9181,-2.9181,0,-2.8651,-2.8681,-2.8722,-2.8775,-2.8809,-2.8819,-2.8861,-2.8889,-2.893,-2.8967,-2.9004,-2.9055,-2.9097,-2.9133,-2.9176,-2.9197,-2.9203,-2.9207,-2.9205,-2.921,-2.9183,-2.9173,-2.9202,-2.9202,-2.9202,-2.9202,-2.9202,-2.9201,-2.8674,-2.8723,-2.8744,-2.8808,-2.8837,-2.8884,-2.8907,-2.8939,-2.8969,-2.9025,-2.9061,-2.9085,-2.9121,-2.9167,-2.9205,-2.9215,-2.9229,-2.9231,-2.9242,-2.9215,-2.9213,-2.921,-2.92,-2.9235,-2.9235,-2.9266,-2.9266,-2.9266]}]]